Dewpoint
67 70 70 70 70 70 70 70 70 69 69 69 69 69 69 69 68 67 66 66 65 63 62 62 61 61 60 59 58 58 59 60 60 59 60 59 54 55 57 54 53 54 58
68 70 70 70 70 70 70 69 70 69 69 69 69 69 68 68 67 65 65 64 63 62 60 60 59 60 60 58 58 62 60 61 62 59 58 57 58 58 55 52 54 55 51
68 70 70 70 70 70 69 69 69 69 69 69 68 68 67 67 66 64 63 63 63 61 60 62 61 59 59 58 57 58 58 59 59 56 57 57 56 54 53 56 53 51 53
69 69 69 70 70 70 69 69 69 69 69 69 68 67 66 65 64 63 63 62 62 60 61 61 60 59 59 58 58 58 57 56 55 54 54 56 51 53 58 54 51 52 53
68 68 69 70 70 70 69 69 69 69 69 68 67 66 65 63 62 62 63 62 61 60 61 61 61 60 58 58 56 55 54 54 54 53 52 53 55 56 52 51 52 53 57
68 68 70 70 70 70 69 69 69 69 68 68 67 66 64 63 62 61 62 62 60 58 61 60 60 59 58 58 56 55 53 54 53 53 55 53 56 51 51 54 51 50 53
67 68 70 70 70 69 69 69 69 68 68 67 66 65 64 63 62 63 62 61 60 58 59 60 59 58 57 56 55 54 54 54 50 53 52 52 53 54 53 54 56 51 52
67 68 69 70 69 69 69 69 69 68 68 67 66 65 64 63 62 62 62 61 61 62 61 59 58 57 56 55 55 56 56 54 53 52 54 55 51 52 53 49 51 52 50
67 67 68 69 69 69 69 69 68 68 67 66 65 64 63 63 62 62 61 61 61 62 61 60 59 58 57 56 56 57 56 56 54 54 53 53 51 53 49 50 58 52 51
67 67 68 69 68 68 68 68 68 68 67 66 64 63 62 62 62 62 61 60 60 61 61 60 59 58 57 57 57 57 56 55 52 55 55 52 53 49 57 53 50 51 48
66 67 68 68 67 67 67 68 67 67 66 65 64 62 60 61 61 61 61 61 61 61 61 60 58 58 58 57 56 55 55 53 54 55 53 53 53 51 49 52 51 50 51
65 67 67 66 66 65 66 66 66 66 65 64 62 60 59 60 60 60 61 61 60 60 60 60 59 58 56 55 55 55 54 54 54 54 52 55 49 50 50 48 48 50 49
65 66 67 65 65 64 65 65 65 65 64 62 61 60 60 59 60 60 60 60 59 59 58 56 55 53 53 52 52 53 53 53 53 54 53 53 52 49 51 50 51 46 47
64 65 65 65 64 64 64 64 64 63 63 61 61 60 59 59 59 58 57 57 56 55 53 52 52 52 51 51 52 53 53 53 53 54 54 51 51 51 49 49 48 47 47
63 64 64 64 64 65 63 63 64 63 62 61 61 60 59 58 57 57 56 55 54 53 52 51 52 51 51 52 52 52 53 53 54 53 55 53 51 50 52 48 49 47 48
63 64 64 64 65 64 62 62 63 63 62 61 60 60 58 57 57 55 54 53 53 51 51 51 51 51 51 52 51 52 53 54 53 52 53 53 52 49 50 48 48 49 46
63 64 64 65 64 64 62 62 63 63 62 61 60 60 58 56 55 54 53 53 52 51 52 51 50 51 51 51 51 52 52 52 52 52 52 52 51 49 48 49 48 47 47
62 63 63 64 64 64 62 63 63 63 62 61 61 60 58 57 55 53 53 53 53 52 53 50 50 50 50 51 51 52 52 52 52 51 52 50 48 49 48 49 49 48 46
62 62 62 62 63 63 63 63 62 63 63 62 62 60 58 57 56 53 53 54 55 53 52 49 49 49 49 50 51 51 51 51 52 51 50 49 48 48 47 49 49 48 47
63 62 62 62 62 63 63 62 61 62 63 63 62 61 59 58 58 56 56 56 56 53 51 49 48 47 48 49 49 49 49 51 51 51 50 50 49 49 49 49 49 48 48
63 63 62 62 62 62 61 61 60 61 62 62 62 61 60 58 59 59 58 57 55 52 50 48 47 45 45 44 45 43 42 43 49 50 50 50 50 50 50 50 49 48 49
64 62 63 62 61 61 61 61 60 61 62 62 62 62 61 59 59 59 58 57 53 50 50 48 46 44 43 42 40 39 37 39 41 44 44 48 49 50 50 50 50 49 48
62 63 62 63 62 62 62 61 61 61 61 61 62 62 61 60 59 59 59 58 52 49 49 48 46 44 42 41 41 37 38 34 39 41 39 41 47 49 50 49 50 49 49
63 63 63 63 62 62 63 61 60 59 59 60 61 61 61 61 60 59 59 58 53 50 49 49 47 44 41 39 42 43 42 40 36 36 41 40 39 46 48 48 49 49 49
53 61 63 63 62 63 63 61 60 59 59 60 60 61 61 61 60 60 59 58 56 53 50 49 47 44 42 40 40 40 44 42 42 39 38 40 42 39 40 44 46 47 48
43 48 54 61 61 62 62 62 60 59 58 59 59 59 60 61 61 60 59 59 58 56 54 51 48 45 43 42 41 41 40 42 43 42 39 39 39 40 40 39 38 40 43
Wind_Speed
14 14 16 18 21 21 20 21 22 25 26 27 27 26 26 24 25 25 26 22 21 21 22 23 24 24 24 25 27 28 27 26 26 28 28 26 27 27 25 27 26 22 27
21 17 17 19 22 23 24 23 23 24 26 26 26 26 25 25 25 25 22 21 21 22 23 24 24 25 25 26 27 27 28 28 27 27 27 27 26 26 25 27 24 26 24
21 20 18 19 22 24 24 24 24 24 25 26 26 25 26 26 25 21 21 20 21 21 23 23 25 25 26 26 24 25 27 26 25 26 24 18 21 25 24 23 27 25 26
23 19 19 21 22 23 24 24 25 25 25 25 25 25 26 25 24 20 21 21 21 23 22 22 25 25 26 25 24 24 25 24 24 23 17 18 18 23 24 25 25 25 26
24 19 19 23 21 23 23 23 24 24 23 23 24 24 26 25 23 22 21 21 21 22 20 22 26 26 26 24 23 23 23 23 23 21 19 17 15 22 22 23 23 22 21
24 17 21 22 23 23 23 23 24 24 23 22 24 25 24 24 24 22 23 22 22 21 22 24 24 26 25 24 23 23 23 23 20 18 16 20 17 21 22 22 23 21 21
23 20 19 21 25 23 23 24 24 24 24 22 23 24 22 23 23 22 23 22 20 20 23 24 25 25 24 24 24 22 21 21 18 17 14 14 19 22 21 20 23 23 21
24 24 21 21 24 24 22 22 23 24 24 22 22 23 22 22 21 22 22 21 21 21 23 24 24 25 25 25 23 21 21 19 16 16 15 14 20 21 21 19 19 21 22
22 21 22 20 20 22 23 22 22 21 23 22 22 22 20 21 19 21 23 20 21 20 24 24 24 23 23 23 22 21 20 19 14 12 13 12 20 21 19 19 18 22 19
24 21 20 20 19 19 20 21 22 22 23 23 21 21 19 20 17 20 20 20 20 21 24 23 22 23 21 22 20 19 19 18 15 12 12 14 19 19 17 19 19 19 17
21 22 19 20 20 20 19 21 23 24 22 23 21 20 18 14 13 14 17 19 18 21 24 26 24 21 20 21 20 19 16 13 13 12 10 16 18 18 17 18 17 16 17
24 19 22 22 21 21 19 20 19 20 17 16 16 15 12 13 13 13 16 17 16 21 23 23 23 21 15 12 14 15 12 14 14 12 13 16 17 18 16 16 16 16 15
28 22 21 22 21 21 19 18 15 14 14 13 13 11 12 12 11 12 13 13 11 14 13 15 14 13 14 12 12 12 13 12 12 10 15 15 15 16 16 15 16 14 14
26 23 21 22 23 21 18 16 15 14 13 13 11 13 13 12 12 12 14 14 12 12 15 15 14 14 14 13 13 13 13 12 11 10 11 13 15 13 15 14 13 13 13
27 26 25 24 23 21 20 16 14 14 15 15 14 11 11 12 13 12 14 13 13 11 14 12 12 16 15 14 13 14 13 12 11 10 10 12 13 12 12 14 12 13 13
25 22 20 23 22 22 21 19 16 15 17 16 14 13 12 11 13 13 14 14 13 12 8 7 16 17 14 15 15 13 12 11 11 10 9 9 12 11 10 9 12 11 11
25 22 22 22 21 23 22 20 16 16 16 16 15 15 16 14 15 15 14 15 14 10 7 11 12 13 15 11 15 13 13 11 11 11 10 10 9 8 7 9 8 10 10
22 25 23 22 22 23 22 21 17 17 17 17 14 14 14 15 15 15 15 15 13 11 9 13 15 14 14 15 13 12 12 10 10 10 9 9 9 7 6 8 8 9 9
27 26 26 25 25 24 20 20 17 16 18 16 14 15 14 14 15 15 15 15 14 12 11 14 11 17 16 14 14 11 11 11 11 9 10 9 9 9 8 8 8 7 9
25 25 25 23 26 26 21 20 16 16 17 16 15 16 17 16 16 15 13 15 15 14 14 12 17 10 13 17 11 10 8 8 10 12 13 10 10 10 10 9 10 9 9
22 23 27 27 27 24 21 21 18 22 18 18 16 18 20 18 18 17 12 14 15 16 17 17 11 15 9 9 11 4 1 5 11 12 12 13 12 13 12 12 11 11 10
27 28 25 26 25 24 22 20 13 18 16 20 18 18 20 20 19 17 13 14 14 13 15 17 17 9 6 16 8 8 5 4 8 13 12 14 16 13 14 14 14 14 14
29 29 28 26 26 22 17 14 11 13 10 14 18 19 20 21 19 18 15 15 16 14 16 15 15 19 11 16 10 7 4 9 4 6 15 15 16 15 15 16 16 16 16
28 29 32 27 29 27 21 21 24 24 21 18 19 17 17 17 18 17 16 17 17 15 15 15 14 13 12 18 6 6 2 5 5 4 5 15 16 18 18 16 16 17 17
24 5 19 27 27 24 30 26 25 23 17 12 15 16 14 14 15 16 16 16 17 16 17 17 15 14 13 15 14 8 4 3 2 3 4 6 8 15 17 18 17 17 18
26 25 20 15 19 21 23 27 26 25 20 18 15 15 15 15 16 17 15 16 16 17 18 18 19 19 19 14 16 14 13 9 8 6 7 6 11 9 17 16 19 19 17
Wind_Direction
163 158 154 142 132 125 117 112 111 110 108 108 107 106 105 102 98 95 89 92 94 95 95 93 93 92 93 93 91 89 89 87 89 88 87 88 85 85 86 87 76 76 80
148 153 158 147 136 129 124 121 118 116 113 112 110 109 105 100 94 95 99 102 100 100 100 98 96 96 94 94 94 88 89 87 87 87 86 84 85 86 86 82 86 81 79
153 154 156 150 139 131 128 125 122 120 118 117 115 113 107 102 99 102 105 104 106 107 105 101 102 99 97 93 93 91 87 85 85 89 85 82 87 85 87 91 85 81 79
150 155 154 149 141 133 130 127 126 123 121 119 117 113 109 104 105 106 106 107 110 111 105 108 102 102 99 96 97 92 94 92 92 85 78 76 82 87 83 82 84 83 88
150 156 157 146 141 134 131 129 126 123 121 120 119 116 110 113 112 112 110 113 115 110 104 107 105 105 105 103 100 101 99 98 83 81 76 82 83 84 85 78 83 90 84
147 155 154 147 142 138 136 132 128 125 124 124 120 117 118 117 116 117 114 112 114 116 114 111 112 111 108 105 103 102 103 93 93 89 86 91 89 92 89 90 98 90 79
146 150 153 149 141 141 139 135 131 131 128 129 125 121 120 119 121 117 114 113 115 123 120 116 115 113 110 109 109 106 97 97 99 93 87 91 96 92 97 88 86 88 90
148 149 153 150 141 141 139 135 134 135 131 131 127 124 123 120 123 120 116 116 114 114 119 119 117 116 113 111 109 102 102 96 94 99 90 95 95 94 96 91 97 97 89
147 151 150 149 142 139 138 138 136 136 131 129 128 126 124 120 124 123 121 120 116 117 124 122 122 118 117 116 110 108 104 99 98 96 90 96 99 96 101 101 92 94 89
147 154 150 147 144 140 141 140 136 134 132 129 129 126 126 123 129 128 125 125 118 118 129 130 123 121 116 116 111 105 105 102 101 92 96 102 105 104 100 94 86 88 92
153 152 153 147 149 146 150 146 141 137 133 131 131 133 133 127 134 127 130 126 123 119 124 127 127 123 117 114 112 109 102 103 96 99 107 109 105 101 100 100 100 98 100
160 157 153 151 155 154 154 152 150 142 139 137 141 146 142 131 137 137 134 130 130 129 120 127 128 122 112 109 112 106 106 106 104 104 101 108 109 111 107 104 106 100 103
160 157 154 154 158 158 156 155 153 148 145 144 140 142 136 140 145 139 131 131 132 129 120 119 121 117 117 117 115 117 115 113 113 110 118 120 121 114 115 113 112 109 104
167 161 158 161 161 165 159 159 156 153 148 150 148 149 145 144 151 149 139 142 144 141 131 123 130 129 123 123 122 122 122 119 119 118 131 125 122 125 121 119 116 116 110
169 167 169 168 167 165 163 162 164 157 159 159 157 160 157 156 161 156 149 149 154 156 147 141 145 141 134 128 127 129 131 128 124 122 124 130 123 127 134 124 126 121 123
177 170 171 170 167 167 167 167 168 165 163 164 167 170 166 161 164 161 158 158 166 170 163 133 145 144 142 139 138 137 138 136 135 136 127 129 132 128 130 134 131 136 128
181 171 170 166 168 171 175 173 170 170 167 170 176 177 173 167 168 163 165 169 177 171 155 134 133 132 138 142 144 148 148 147 144 142 139 135 125 140 139 143 146 144 137
177 178 171 171 174 173 176 176 173 172 169 177 179 183 180 172 171 164 168 180 186 172 169 149 146 141 150 153 153 159 157 156 153 152 151 147 147 155 154 135 163 162 153
183 178 178 176 176 176 176 173 169 170 175 180 179 182 184 183 179 174 178 186 184 184 175 159 155 154 159 160 159 161 166 171 171 167 172 173 172 168 170 178 171 179 182
183 184 179 177 180 180 175 175 168 170 181 178 183 187 182 188 186 183 188 189 184 187 176 173 160 150 164 164 155 158 179 196 190 189 190 190 192 190 191 194 186 195 221
179 180 185 183 184 178 176 178 175 181 183 185 188 189 186 191 191 189 193 193 186 185 183 177 156 155 152 144 130 117 195 231 220 215 208 205 207 206 203 206 203 203 217
188 188 187 187 185 185 179 183 178 185 196 192 189 190 190 193 192 191 191 193 188 188 184 182 167 159 147 170 153 149 186 240 237 227 225 221 221 213 216 216 214 215 217
193 190 191 188 187 180 176 164 172 181 180 193 194 193 196 191 192 193 186 185 187 186 189 193 181 176 170 196 186 157 165 221 189 211 228 222 222 222 221 222 223 222 222
191 190 190 188 183 178 169 168 192 193 199 203 195 194 189 192 189 193 185 185 184 183 188 195 195 187 172 190 215 223 188 153 188 232 222 224 224 223 226 225 225 225 225
20 272 201 184 183 184 178 195 200 196 194 171 184 187 178 177 186 196 195 186 188 186 187 190 198 195 198 190 200 189 212 209 159 172 239 236 225 228 225 227 226 225 224
20 22 18 184 187 183 186 186 195 185 174 165 166 174 176 185 192 199 195 194 190 192 194 197 197 197 199 207 209 211 208 205 208 201 227 228 229 245 225 220 226 228 226